TimeCDT,TemperatureF,Dew PointF,Humidity,Sea Level PressureIn,VisibilityMPH,Wind Direction,Wind SpeedMPH,Gust SpeedMPH,PrecipitationIn,Events,Conditions,WindDirDegrees,DateUTC
12:53 AM,73.9,72.0,93,29.86,10.0,SSW,4.6,-,N/A,,Clear,210,2012-08-19 05:53:00
1:53 AM,73.9,72.0,93,29.83,10.0,SSW,10.4,-,N/A,,Clear,210,2012-08-19 06:53:00
2:53 AM,75.9,73.0,91,29.83,10.0,South,8.1,-,N/A,,Clear,190,2012-08-19 07:53:00
3:53 AM,77.0,73.9,90,29.87,10.0,North,3.5,-,N/A,,Clear,350,2012-08-19 08:53:00
4:53 AM,75.2,73.4,94,29.90,10.0,North,6.9,-,N/A,Rain,Light Rain,10,2012-08-19 09:53:00
5:01 AM,75.2,73.4,94,29.90,10.0,North,6.9,-,0.00,,Mostly Cloudy,10,2012-08-19 10:01:00
5:43 AM,73.4,71.6,94,29.89,10.0,NNE,8.1,-,0.00,,Overcast,20,2012-08-19 10:43:00
5:53 AM,73.9,72.0,93,29.89,10.0,NNE,8.1,-,0.00,,Overcast,20,2012-08-19 10:53:00
6:53 AM,73.9,71.1,91,29.90,10.0,North,5.8,-,N/A,,Overcast,360,2012-08-19 11:53:00
7:09 AM,73.4,71.6,94,29.90,10.0,North,4.6,-,N/A,,Overcast,10,2012-08-19 12:09:00
7:41 AM,73.4,71.6,94,29.91,10.0,Variable,3.5,-,N/A,,Overcast,0,2012-08-19 12:41:00
7:53 AM,73.9,72.0,93,29.91,10.0,Calm,Calm,-,N/A,,Overcast,0,2012-08-19 12:53:00
8:53 AM,75.9,72.0,87,29.93,10.0,ENE,4.6,-,N/A,,Overcast,60,2012-08-19 13:53:00
9:21 AM,75.2,71.6,89,29.95,10.0,South,5.8,-,0.00,Rain,Light Rain,190,2012-08-19 14:21:00
9:53 AM,75.9,72.0,87,29.94,10.0,Calm,Calm,-,0.00,,Overcast,0,2012-08-19 14:53:00
10:22 AM,75.2,73.4,94,29.96,1.8,West,8.1,-,0.07,Rain,Heavy Rain,280,2012-08-19 15:22:00
10:26 AM,75.2,73.4,94,29.97,0.8,West,8.1,-,0.14,Rain,Heavy Rain,280,2012-08-19 15:26:00
10:53 AM,73.9,72.0,93,29.98,0.5,NW,3.5,-,0.58,Fog-Rain,Heavy Rain,310,2012-08-19 15:53:00
11:07 AM,73.4,71.6,94,29.98,1.5,Calm,Calm,-,0.07,Rain,Heavy Rain,0,2012-08-19 16:07:00
11:21 AM,73.4,71.6,94,29.97,3.0,Calm,Calm,-,0.11,Rain,Rain,0,2012-08-19 16:21:00
11:53 AM,73.9,72.0,93,29.97,5.0,Calm,Calm,-,0.16,Rain,Rain,0,2012-08-19 16:53:00
12:07 PM,75.2,71.6,89,29.97,6.0,WNW,3.5,-,0.01,Rain,Light Rain,290,2012-08-19 17:07:00
12:26 PM,75.2,71.6,89,29.96,6.0,Calm,Calm,-,0.02,Rain,Rain,0,2012-08-19 17:26:00
12:53 PM,75.9,72.0,87,29.96,9.0,Calm,Calm,-,0.03,Rain,Light Rain,0,2012-08-19 17:53:00
1:28 PM,77.0,73.4,89,29.94,10.0,Calm,Calm,-,0.00,,Mostly Cloudy,0,2012-08-19 18:28:00
1:43 PM,77.0,73.4,89,29.93,10.0,Calm,Calm,-,0.00,,Mostly Cloudy,0,2012-08-19 18:43:00
1:53 PM,77.0,73.0,88,29.93,10.0,Calm,Calm,-,0.00,,Mostly Cloudy,0,2012-08-19 18:53:00
2:11 PM,77.0,73.4,89,29.93,10.0,Calm,Calm,-,N/A,,Overcast,0,2012-08-19 19:11:00
2:43 PM,77.0,73.4,89,29.91,10.0,Calm,Calm,-,0.00,Rain,Light Rain,0,2012-08-19 19:43:00
2:53 PM,77.0,73.0,88,29.91,10.0,South,3.5,-,0.00,Rain,Light Rain,170,2012-08-19 19:53:00
3:09 PM,77.0,73.4,89,29.90,10.0,SSE,3.5,-,0.00,,Overcast,150,2012-08-19 20:09:00
3:53 PM,78.1,73.0,84,29.90,10.0,South,5.8,-,0.00,,Mostly Cloudy,170,2012-08-19 20:53:00
4:07 PM,78.8,73.4,83,29.90,10.0,South,6.9,-,N/A,,Overcast,170,2012-08-19 21:07:00
4:53 PM,78.1,73.0,84,29.90,10.0,SSE,4.6,-,N/A,,Mostly Cloudy,160,2012-08-19 21:53:00
5:00 PM,78.8,71.6,78,29.89,10.0,SSE,4.6,-,N/A,,Mostly Cloudy,160,2012-08-19 22:00:00
5:08 PM,78.8,73.4,83,29.90,10.0,South,4.6,-,N/A,,Mostly Cloudy,170,2012-08-19 22:08:00
5:53 PM,78.1,72.0,81,29.90,10.0,SSW,4.6,-,N/A,,Mostly Cloudy,200,2012-08-19 22:53:00
6:03 PM,78.8,71.6,78,29.89,10.0,South,5.8,-,N/A,,Scattered Clouds,170,2012-08-19 23:03:00
6:37 PM,78.8,71.6,78,29.89,10.0,South,5.8,-,N/A,,Mostly Cloudy,180,2012-08-19 23:37:00
6:53 PM,78.1,72.0,81,29.89,10.0,South,4.6,-,N/A,,Mostly Cloudy,170,2012-08-19 23:53:00
7:08 PM,77.0,71.6,83,29.89,10.0,Variable,3.5,-,N/A,,Mostly Cloudy,0,2012-08-20 00:08:00
7:24 PM,77.0,71.6,83,29.89,10.0,South,4.6,-,N/A,,Mostly Cloudy,170,2012-08-20 00:24:00
7:31 PM,77.0,71.6,83,29.88,10.0,South,5.8,-,N/A,,Mostly Cloudy,180,2012-08-20 00:31:00
7:42 PM,77.0,71.6,83,29.88,10.0,South,5.8,-,N/A,,Scattered Clouds,190,2012-08-20 00:42:00
7:53 PM,77.0,72.0,84,29.89,10.0,South,4.6,-,N/A,,Scattered Clouds,190,2012-08-20 00:53:00
8:11 PM,77.0,71.6,83,29.89,10.0,South,3.5,-,N/A,,Mostly Cloudy,180,2012-08-20 01:11:00
8:53 PM,75.9,72.0,87,29.90,10.0,South,3.5,-,N/A,,Scattered Clouds,190,2012-08-20 01:53:00
9:53 PM,75.0,72.0,90,29.90,10.0,South,3.5,-,N/A,,Clear,170,2012-08-20 02:53:00
10:53 PM,73.9,71.1,91,29.90,10.0,Calm,Calm,-,N/A,,Clear,0,2012-08-20 03:53:00
11:53 PM,73.4,71.6,94,29.90,10.0,Calm,Calm,-,N/A,,Clear,0,2012-08-20 04:53:00